Current Weather Conditions: station 63108

sailwx.info

Last reported at 2018-May-01 00:43 UTC.
Time now 2018-May-23 22:04 UTC

Location: N 60°48' E 001°42'.
View on Google Maps.

See reports from other nearby stations

  
Tides and Currents Weather Stations Pressure Air Temp Water Temp Dewpoint Dewpoint Depression Visibility Wind Speed Wind Dir Waves Ship Positions
date/time (UTC)wind fromknots sea level pressurealtimeterstation pressurevisibilityair tempwater tempwave heightnotes
2018-May-23 21:00 300 6 10.8 8.4 1.2
2018-May-23 20:00 330 6 10.8 8.8 1.3
2018-May-23 19:00 340 8 10.8 9.5 1.4
2018-May-23 18:00 350 7 10.8 9.7 1.4
2018-May-23 17:00 350 9 10.8 9.2 1.3
2018-May-23 16:00 350 13 10.8 9.3 1.5
2018-May-23 15:00 360 12 10.8 9.3 1.5
2018-May-23 14:00 360 13 10.8 9.3 1.6
2018-May-23 13:00 360 13 10.8 9.4 1.7
2018-May-23 12:00 360 13 10.8 9.3 1.8
2018-May-23 11:00 360 14 10.8 9.1 1.8
2018-May-23 10:00 360 14 10.8 8.9 2.0
2018-May-23 09:00 010 14 10.8 8.8 2.1
2018-May-23 08:00 360 15 10.8 8.6 2.2
2018-May-23 07:00 010 15 10.8 8.4 2.3
2018-May-23 06:00 010 17 10.8 8.4 2.3
2018-May-23 05:00 010 15 10.8 8.2 2.2
2018-May-23 04:00 010 13 10.8 8.2 2.3
2018-May-23 03:00 020 13 10.8 8.3 2.2
2018-May-23 02:00 010 18 10.8 8.2 2.3
2018-May-23 01:00 010 17 10.8 8.3 2.3
2018-May-23 00:00 010 18 10.8 8.3 2.3
2018-May-22 23:00 010 18 10.8 8.3 2.2
2018-May-22 22:00 010 19 10.8 8.4 2.2
2018-May-22 21:00 010 18 10.8 8.4 2.3
2018-May-22 20:00 020 15 27.0 8.6 2.2
2018-May-22 19:00 020 15 27.0 8.6 2.3
2018-May-22 18:00 020 13 27.0 8.8 2.1
2018-May-22 17:00 020 17 27.0 8.8 2.2
2018-May-22 16:00 020 15 27.0 8.7 2.0
2018-May-22 15:00 020 17 27.0 8.7 2.0
2018-May-22 14:00 020 13 27.0 8.5 2.0
2018-May-22 13:00 020 15 27.0 8.5 2.1
2018-May-22 12:00 020 14 27.0 8.5 2.1
2018-May-22 11:00 020 14 27.0 8.3 2.1
2018-May-22 10:00 020 14 27.0 8.2 2.1
2018-May-22 09:00 020 17 27.0 7.9
2018-May-22 08:00 020 13 27.0 7.9 2.0
2018-May-22 07:00 020 13 27.0 8.0 2.2
2018-May-22 06:00 020 13 27.0 8.0 2.2
2018-May-22 05:00 010 20 27.0 7.7 2.4
2018-May-22 04:00 010 20 27.0 7.5 2.4
2018-May-22 03:00 360 21 27.0 7.2 2.3
2018-May-22 02:00 360 21 10.8 7.3 2.2
2018-May-22 01:00 360 19 10.8 7.8 1.9
2018-May-22 00:00 350 6 2.2 8.4 1.9
2018-May-21 23:00 280 6 2.2 8.3 1.8
2018-May-21 22:00 270 7 2.2 8.3 1.9